Regional Weather Roundup
Issued by NWS

Home | Current Version | Previous Version | Graphics & Text | Print | Product List | Glossary On
Versions: 1 2 3 4 5 6 7 8 9 10 11 12 13 14 15 16 17 18 19 20 21 22 23 24 25 26 27 28 29 30 31 32 33 34 35 36 37 38 39 40 41 42 43 44 45 46 47 48 49 50
000
ASUS43 KMPX 120201
RWRMN
WEATHER ROUNDUP FOR MINNESOTA
NATIONAL WEATHER SERVICE TWIN CITIES/CHANHASSEN MN
800 PM CST THU FEB 11 2016


NOTE: "FAIR" INDICATES FEW OR NO CLOUDS BELOW 12,000 FEET WITH NO
SIGNIFICANT WEATHER AND/OR OBSTRUCTIONS TO VISIBILITY. N/A MEANS
CURRENT SKY AND/OR WEATHER CONDITIONS ARE NOT AVAILABLE.

MNZ060>063-068>070-120300-
   Twin Cities Metro

CITY           SKY/WX    TMP DP  RH WIND       PRES   REMARKS
TWIN CITIES    LGT SNOW  15   8  73 SW7       30.24F WCI   5
ST PAUL        LGT SNOW  15   7  70 W5        30.26F WCI   8
CRYSTAL        LGT SNOW  15   9  76 SW5       30.23F WCI   8
BLAINE         CLOUDY    16  10  79 SW6       30.22F WCI   7
LAKEVILLE      FLURRIES  12   7  79 CALM      30.24S
EDEN PRAIRIE   LGT SNOW  14   7  73 CALM      30.23S
SOUTH ST PAUL  LGT SNOW  16   8  70 CALM      30.24F
LAKE ELMO      FLURRIES  18   7  62 W5        30.24S WCI  11
$$
MNZ001>005-007-008-013>017-022>024-027-028-120300-
   Northwest Minnesota

CITY           SKY/WX    TMP DP  RH WIND       PRES   REMARKS
BEMIDJI        PTCLDY     7   1  75 W9        30.19R WCI  -7
HALLOCK        MOCLDY     9   3  78 NW8       30.29S WCI  -4
ROSEAU         CLEAR      7   0  72 W8        30.23R WCI  -6
WARROAD        CLEAR      7   1  78 W9        30.21R WCI  -7
THIEF RVR FALL CLOUDY    10   0  61 NW15      30.24S WCI  -6
CROOKSTON      CLOUDY    10   9  92 NW8       30.28S WCI  -1
FOSSTON        FLURRIES   7   3  85 W5        30.23S WCI  -2
DETROIT LAKES  CLOUDY    12   5  73 NW8       30.22S WCI   1
MOORHEAD       CLOUDY    12   5  73 NW8       30.28R WCI   1
PARK RAPIDS    CLOUDY    11   1  64 NW8       30.18R WCI  -1
MAHNOMEN       CLOUDY    10   3  75 NW6       30.23R WCI   0
$$
MNZ006-009>011-018-025>026-120300-
   North Central Minnesota

CITY           SKY/WX    TMP DP  RH WIND       PRES   REMARKS
BAUDETTE       PTCLDY     7   0  73 W9        30.16S WCI  -7
FLAG ISLAND    CLEAR      3  -2  78 NW14      30.18S WCI -15
INTL FALLS     PTCLDY     6  -1  73 W7        30.13S WCI  -6
WASKISH        CLOUDY     9   3  78 W8        30.18S WCI  -4
LONGVILLE      CLOUDY    12   0  57 W6        30.17S WCI   3
GRAND RAPIDS   CLOUDY    10  -2  56 NW9       30.15S WCI  -2
CRANE LAKE     CLOUDY     9  -4  56 W2        30.13F
ORR            CLOUDY     9  -2  61 W8        30.09S WCI  -4
COOK           CLOUDY     9   0  66 W7        30.11F WCI  -3
WALKER         CLOUDY    11   1  63 W6        30.18R WCI   2
$$
MNZ012-019>021-037-120300-
   Northeast Minnesota

CITY           SKY/WX    TMP DP  RH WIND       PRES   REMARKS
DULUTH         MOCLDY    11  -1  58 W12       30.11F WCI  -3
ELY            CLOUDY     7  -2  66 W9        30.07F WCI  -7
HIBBING        CLOUDY     9  -5  53 W6        30.12S WCI  -1
EVELETH        CLOUDY    12   0  57 W8        30.12S WCI   1
DULUTH HARBOR  CLOUDY    16   1  53 SW14      30.19S WCI   1
TWO HARBORS    CLOUDY    14   0  52 W5        30.10F WCI   6
SILVER BAY     CLOUDY    10  -6  48 SW5       30.08F WCI   2
GRAND MARAIS     N/A      8  -2  63 W6        30.11S WCI  -2
G MARAIS ARPRT CLEAR      1  -8  66 W9        29.98F WCI -14
$$
MNZ029>031-032-039>041-046>048-054>057-064-120300-
   West Central Minnesota

CITY           SKY/WX    TMP DP  RH WIND       PRES   REMARKS
FERGUS FALLS   FLURRIES  12   9  85 NW6       30.27R WCI   3
WHEATON        FLURRIES  16  12  86 NW6       30.28R WCI   7
MORRIS         LGT SNOW  16  10  79 NW6       30.22S WCI   7
ALEXANDRIA     CLOUDY    12   8  84 NW6       30.20R WCI   3
ELBOW LAKE     LGT SNOW  13  10  89 W6        30.24R WCI   4
WADENA         CLOUDY    12   5  73 NW7       30.20R WCI   2
GLENWOOD       LGT SNOW  12  10  92 W3        30.21R
APPLETON       FLURRIES  18  12  79 N3        30.24R
BENSON         FLURRIES  16  10  79 CALM      30.23R
ORTONVILLE     FLURRIES  16  10  79 N6        30.24R WCI   7
MADISON        CLOUDY    12   9  85 CALM      30.23S
WILLMAR        FLURRIES  18  12  79 W3        30.23S
$$
MNZ033>034-036-042>043-049>051-058-059-120300-
   Central Minnesota

CITY           SKY/WX    TMP DP  RH WIND       PRES   REMARKS
ST CLOUD       LGT SNOW  13   9  84 W3        30.22S FOG
SAUK CENTRE    FLURRIES  12   9  89 CALM      30.21S
PAYNESVILLE    LGT SNOW  15  10  80 W6        30.22S WCI   6
AITKIN         CLOUDY    16   1  53 CALM      30.16F
PINE RIVER     CLOUDY    12   1  62 W5        30.21R WCI   4
BRAINERD       CLOUDY    13   5  70 W6        30.19S WCI   4
STAPLES        CLOUDY    12   7  79 W6        30.19S WCI   3
LONG PRAIRIE   FLURRIES  12   9  85 CALM      30.20S
LITTLE FALLS   FLURRIES  14  10  85 W3        30.21S
LITCHFIELD     CLOUDY    16   9  73 CALM      30.22F
BUFFALO        LGT SNOW  14  10  85 CALM      30.24S
MAPLE LAKE     FLURRIES  15  11  85 CALM      30.23F
$$
MNZ037-044-045-052-053-120300-
   East Central Minnesota

CITY           SKY/WX    TMP DP  RH WIND       PRES   REMARKS
PRINCETON      LGT SNOW  16  10  79 CALM      30.22S
MORA           CLOUDY    14   5  67 W5        30.22S WCI   6
CAMBRIDGE      FLURRIES  16   7  67 CALM      30.21S
RUSH CITY      CLOUDY    14   6  70 CALM      30.22S
MOOSE LAKE     CLOUDY    14   1  57 W7        30.16S WCI   4
HINCKLEY       CLOUDY    14   5  67 SW5       30.19F WCI   6
CLOQUET        CLOUDY    12  -2  52 W7        30.13F WCI   2
MCGREGOR       CLOUDY    14   3  62 W6        30.17S WCI   5
$$
MNZ071>073-080-081-089-090-097-098-120300-
   Southwest Minnesota

CITY           SKY/WX    TMP DP  RH WIND       PRES   REMARKS
MONTEVIDEO     CLOUDY    16  10  79 CALM      30.24S
GRANITE FALLS  CLOUDY    17  14  89 CALM      30.24S
CANBY          CLOUDY    12  10  92 SW6       30.24R WCI   3
MARSHALL       CLOUDY    11   8  88 W3        30.22S
REDWOOD FALLS  CLOUDY    16  12  84 SW5       30.23S WCI   9
OLIVIA         CLOUDY    18  14  86 SW5       30.22S WCI  11
PIPESTONE      FLURRIES  12   5  73 CALM      30.18R
WINDOM         CLOUDY     9   5  85 CALM      30.19S
WORTHINGTON    CLOUDY    10   7  85 SW7       30.18F WCI   0
JACKSON        CLOUDY    10   7  85 SW8       30.19S WCI  -1
TRACY          CLOUDY    12  10  89 CALM      30.21S
SLAYTON        CLOUDY     8   8  97 SW5       30.19S WCI   0
$$
MNZ065>067-074>077-082>085-091>093-120300-
   South Central Minnesota

CITY           SKY/WX    TMP DP  RH WIND       PRES   REMARKS
MANKATO        CLOUDY    14   5  67 SW7       30.23S WCI   4
NEW ULM        CLOUDY    12   9  85 CALM      30.23S
ST JAMES       CLOUDY    12  10  92 CALM      30.24S
FAIRMONT       MOCLDY    10   5  79 S6        30.20S WCI   1
GLENCOE        CLOUDY    16  10  75 CALM      30.23F
FARIBAULT        N/A     14   7  73 S3        30.23F
OWATONNA       CLOUDY    14   5  67 SW9       30.22S WCI   2
WASECA         CLOUDY    14   9  79 S9        30.23F WCI   2
ALBERT LEA     CLEAR     10   3  72 S3        30.21F
$$
MNZ078>079-086>088-094>096-120300-
   Southeast Minnesota

CITY           SKY/WX    TMP DP  RH WIND       PRES   REMARKS
ROCHESTER      CLOUDY    11   3  70 SW8       30.21F WCI  -1
RED WING       CLOUDY    18   7  62 W2        30.24F
STANTON        LGT SNOW  15   8  73 SW3       30.23S
DODGE CENTER   CLOUDY    12   3  67 SW7       30.21S WCI   2
WINONA         CLOUDY    16   3  57 W3        30.28S
AUSTIN         CLOUDY    10   5  79 SW7       30.22F WCI   0
PRESTON        CLOUDY    10   1  67 W6        30.23S WCI   0
$$
ABBREVIATIONS USED IN REMARKS
   TC - TEMPERATURES IN CELSIUS
  WCI - WIND CHILL INDEX
   HX - HEAT INDEX
  VSB - VISIBILITY
$$



USA.gov is the U.S. government's official web portal to all federal, state and local government web resources and services.